Home > Weather > Savannah > Past weeks

Flag for USA Past Weather in Savannah, Georgia, USA — Yesterday and Last 2 Weeks

Now
82 °F

Clear.


Feels Like: 90 °F
Forecast: 79 / 92 °F
Wind: 3 mph from South

Location: Hunter U. S. Army Airfield

Current Time: Jul 25, 2016 at 12:20:49 AM

Latest Report: Jul 24, 2016 at 11:58 PM


Visibility: 10 mi

Pressure: 30.05 "Hg

Humidity: 85%

Dew Point: 77 °F

Location of SavannahLocation

Past Weather in Savannah — Graph

°F

Savannah Temperature Yesterday

Maximum temperature yesterday: 93 °F (at 12:58 PM)
Minimum temperature yesterday: 77 °F (at 6:58 AM)
Average temperature yesterday: 85 °F

High & Low Weather Summary for the Past Weeks

 TemperatureHumidityPressure
High97 °F (Jul 13, 2:58 PM)100% (Jul 17, 2:58 PM)30.27 "Hg (Jul 17, 2:58 PM)
Low72 °F (Jul 18, 6:58 AM)42% (Jul 12, 4:58 PM)29.96 "Hg (Jul 10, 4:58 PM)
Average83 °F81%30.08 "Hg
* Reported Jul 9 10:58 PM — Jul 24 10:58 PM, Savannah, Weather by CustomWeather, © 2016

Note: Actual official high and low records may vary slightly from our data, if they occured in-between our weather recording intervals... More about our weather records

Advertising

Savannah Weather History for the Previous 24 Hours

Scroll right to see more
 ConditionsComfort  
Time TempWeatherWind HumidityBarometerVisibility
10:58 PM
Sun, Jul 24
82 °FClear.5 mph84%30.04 "Hg10 mi
9:58 PM83 °FClear.5 mph82%30.03 "Hg10 mi
8:58 PM84 °FSunny.6 mph77%30.02 "Hg10 mi
7:58 PM86 °FSunny.7 mph72%30.00 "Hg10 mi
6:58 PM89 °FSunny.10 mph65%29.99 "Hg10 mi
5:58 PM90 °FSunny.9 mph68%29.99 "Hg10 mi
4:58 PM89 °FSunny.5 mph71%30.00 "Hg10 mi
3:58 PM93 °FThundershowers. Passing clouds.14 mph67%30.02 "Hg10 mi
2:58 PM89 °FSunny.6 mph77%30.01 "Hg10 mi
1:58 PM92 °FBroken clouds.3 mph62%30.02 "Hg10 mi
12:58 PM93 °FSunny.6 mph64%30.02 "Hg10 mi
11:58 AM91 °FSunny.7 mph67%30.03 "Hg10 mi
10:58 AM89 °FSunny.7 mph71%30.04 "Hg10 mi
9:58 AM86 °FSunny.3 mph79%30.04 "Hg10 mi
8:58 AM83 °FSunny.7 mph84%30.04 "Hg10 mi
7:58 AM80 °FSunny.2 mph96%30.03 "Hg10 mi
6:58 AM77 °FClear.2 mph100%30.01 "Hg10 mi
5:58 AM78 °FClear.2 mph95%30.00 "Hg10 mi
4:58 AM79 °FClear.5 mph94%29.99 "Hg10 mi
3:58 AM79 °FClear.5 mph96%30.00 "Hg10 mi
2:58 AM80 °FClear.5 mph94%30.01 "Hg10 mi
1:58 AM80 °FClear.5 mph93%30.01 "Hg10 mi
12:58 AM81 °FClear.5 mph92%30.01 "Hg10 mi
Weather by CustomWeather, © 2016

See weather overviewHow to use our weather pages